When you browse on this site, cookies collect data to enhance your experience and personalize the content and advertising you see.
Visit our Privacy Policy to learn more. By continuing to use the site, you agree to this use of cookies and data.

Meteo pe oră la Dziemiany

Astăzi, 25 Septembrie, Vineri

Timp Temperatura Precipitaţii Vânt Presiune Umiditate
00:00 +16°C° 0 mm 1 m/s 738 mmHg 86%
01:00 +15°C° 0 mm 1 m/s 738 mmHg 87%
02:00 +15°C° 0 mm 2 m/s 738 mmHg 87%
03:00 +15°C° 0 mm 2 m/s 737 mmHg 87%
04:00 +15°C° 0 mm 2 m/s 737 mmHg 87%
05:00 +15°C° 0 mm 2 m/s 736 mmHg 84%
06:00 +16°C° 0 mm 3 m/s 736 mmHg 82%
07:00 +15°C° 0 mm 4 m/s 735 mmHg 79%
08:00 +18°C° 0.1 mm 4 m/s 735 mmHg 74%
09:00 +19°C° 0.1 mm 5 m/s 734 mmHg 68%
10:00 +21°C° 0.1 mm 6 m/s 734 mmHg 62%
11:00 +22°C° 0 mm 6 m/s 733 mmHg 56%
12:00 +23°C° 0 mm 6 m/s 733 mmHg 51%
13:00 +24°C° 0 mm 7 m/s 732 mmHg 46%
14:00 +23°C° 0.2 mm 6 m/s 732 mmHg 52%
15:00 +22°C° 0.2 mm 6 m/s 731 mmHg 58%
16:00 +21°C° 0.2 mm 6 m/s 731 mmHg 64%
17:00 +20°C° 1.6 mm 5 m/s 731 mmHg 73%
18:00 +18°C° 1.6 mm 4 m/s 731 mmHg 82%
19:00 +17°C° 1.6 mm 3 m/s 731 mmHg 92%
20:00 +16°C° 1 mm 3 m/s 731 mmHg 92%
21:00 +16°C° 1 mm 2 m/s 732 mmHg 92%
22:00 +15°C° 1 mm 2 m/s 732 mmHg 92%
23:00 +15°C° 0.1 mm 2 m/s 732 mmHg 93%

Mâine, 26 Septembrie, Sâmbătă

Timp Temperatura Precipitaţii Vânt Presiune Umiditate
00:00 +14°C° 0.1 mm 2 m/s 732 mmHg 93%
01:00 +14°C° 0.1 mm 1 m/s 732 mmHg 94%
02:00 +14°C° 0 mm 2 m/s 732 mmHg 95%
03:00 +14°C° 0 mm 2 m/s 732 mmHg 95%
04:00 +14°C° 0 mm 2 m/s 731 mmHg 95%
05:00 +14°C° 0 mm 2 m/s 731 mmHg 95%
06:00 +13°C° 0 mm 3 m/s 731 mmHg 94%
07:00 +13°C° 0 mm 3 m/s 731 mmHg 94%
08:00 +16°C° 0 mm 3 m/s 731 mmHg 91%
09:00 +17°C° 0 mm 3 m/s 731 mmHg 88%
10:00 +18°C° 0 mm 4 m/s 731 mmHg 85%
11:00 +19°C° 0.1 mm 4 m/s 731 mmHg 82%
12:00 +19°C° 0.1 mm 4 m/s 731 mmHg 79%
13:00 +20°C° 0.1 mm 4 m/s 730 mmHg 76%
14:00 +19°C° 0.2 mm 4 m/s 731 mmHg 78%
15:00 +19°C° 0.2 mm 4 m/s 731 mmHg 81%
16:00 +18°C° 0.2 mm 3 m/s 731 mmHg 84%
17:00 +18°C° 0.2 mm 3 m/s 731 mmHg 86%
18:00 +17°C° 0.2 mm 3 m/s 731 mmHg 89%
19:00 +17°C° 0.2 mm 3 m/s 732 mmHg 92%
20:00 +17°C° 0.3 mm 3 m/s 732 mmHg 93%
21:00 +17°C° 0.3 mm 3 m/s 733 mmHg 93%
22:00 +17°C° 0.3 mm 2 m/s 733 mmHg 94%
23:00 +16°C° 0.4 mm 2 m/s 733 mmHg 92%

Poimâine, 27 Septembrie, Duminică

Timp Temperatura Precipitaţii Vânt Presiune Umiditate
00:00 +16°C° 0.4 mm 2 m/s 733 mmHg 91%
01:00 +16°C° 0.4 mm 2 m/s 733 mmHg 90%
02:00 +16°C° 0.1 mm 2 m/s 733 mmHg 89%
03:00 +16°C° 0.1 mm 2 m/s 733 mmHg 88%
04:00 +16°C° 0.1 mm 3 m/s 734 mmHg 87%
05:00 +16°C° 0.3 mm 3 m/s 734 mmHg 86%
06:00 +16°C° 0.3 mm 3 m/s 734 mmHg 86%
07:00 +16°C° 0.3 mm 3 m/s 734 mmHg 85%
08:00 +16°C° 0.6 mm 3 m/s 734 mmHg 83%
09:00 +17°C° 0.6 mm 3 m/s 734 mmHg 81%
10:00 +18°C° 0.6 mm 4 m/s 735 mmHg 78%
11:00 +18°C° 0.1 mm 4 m/s 735 mmHg 77%
12:00 +18°C° 0.1 mm 4 m/s 735 mmHg 76%
13:00 +19°C° 0.1 mm 4 m/s 735 mmHg 74%
14:00 +19°C° 0 mm 4 m/s 735 mmHg 72%
15:00 +19°C° 0 mm 4 m/s 734 mmHg 71%
16:00 +19°C° 0 mm 4 m/s 734 mmHg 69%
17:00 +19°C° 0 mm 4 m/s 734 mmHg 69%
18:00 +18°C° 0 mm 4 m/s 734 mmHg 70%
19:00 +18°C° 0 mm 4 m/s 734 mmHg 71%
20:00 +17°C° 0 mm 4 m/s 735 mmHg 72%
21:00 +17°C° 0 mm 4 m/s 735 mmHg 74%
22:00 +17°C° 0 mm 4 m/s 735 mmHg 76%
23:00 +15°C° 0 mm 4 m/s 735 mmHg 80%

28 Septembrie, Luni

Timp Temperatura Precipitaţii Vânt Presiune Umiditate
00:00 +15°C° 0 mm 4 m/s 735 mmHg 84%
01:00 +14°C° 0 mm 3 m/s 735 mmHg 87%
02:00 +13°C° 0 mm 3 m/s 735 mmHg 87%
03:00 +13°C° 0 mm 3 m/s 735 mmHg 87%
04:00 +12°C° 0 mm 3 m/s 736 mmHg 87%
05:00 +12°C° 0 mm 3 m/s 736 mmHg 85%
06:00 +12°C° 0 mm 4 m/s 736 mmHg 83%
07:00 +11°C° 0 mm 4 m/s 736 mmHg 81%
08:00 +12°C° 0 mm 4 m/s 736 mmHg 81%
09:00 +12°C° 0 mm 5 m/s 737 mmHg 80%
10:00 +12°C° 0 mm 5 m/s 737 mmHg 80%
11:00 +12°C° 0.3 mm 4 m/s 737 mmHg 83%
12:00 +11°C° 0.3 mm 4 m/s 737 mmHg 86%
13:00 +11°C° 0.3 mm 3 m/s 738 mmHg 89%
14:00 +11°C° 0.5 mm 4 m/s 738 mmHg 89%
15:00 +11°C° 0.5 mm 4 m/s 738 mmHg 90%
16:00 +10°C° 0.5 mm 5 m/s 738 mmHg 90%
17:00 +10°C° 0.5 mm 5 m/s 738 mmHg 91%
18:00 +9°C° 0.5 mm 5 m/s 738 mmHg 91%
19:00 +9°C° 0.5 mm 5 m/s 739 mmHg 92%
20:00 +9°C° 0.5 mm 5 m/s 739 mmHg 91%
21:00 +9°C° 0.5 mm 5 m/s 739 mmHg 89%
22:00 +9°C° 0.5 mm 5 m/s 739 mmHg 88%
23:00 +9°C° 0.1 mm 5 m/s 739 mmHg 87%

29 Septembrie, Marţi

Timp Temperatura Precipitaţii Vânt Presiune Umiditate
00:00 +9°C° 0.1 mm 5 m/s 739 mmHg 86%
01:00 +10°C° 0.1 mm 4 m/s 740 mmHg 85%
02:00 +8°C° 0 mm 4 m/s 740 mmHg 86%
03:00 +8°C° 0 mm 4 m/s 740 mmHg 87%
04:00 +8°C° 0 mm 4 m/s 740 mmHg 88%
05:00 +8°C° 0 mm 4 m/s 740 mmHg 87%
06:00 +8°C° 0 mm 4 m/s 740 mmHg 87%
07:00 +9°C° 0 mm 3 m/s 741 mmHg 87%
08:00 +10°C° 0 mm 3 m/s 741 mmHg 82%
09:00 +12°C° 0 mm 3 m/s 741 mmHg 76%
10:00 +13°C° 0 mm 3 m/s 741 mmHg 71%
11:00 +15°C° 0 mm 2 m/s 742 mmHg 66%
12:00 +16°C° 0 mm 2 m/s 742 mmHg 60%
13:00 +17°C° 0 mm 2 m/s 742 mmHg 55%
14:00 +18°C° 0 mm 1 m/s 742 mmHg 56%
15:00 +18°C° 0 mm 1 m/s 742 mmHg 58%
16:00 +16°C° 0 mm 1 m/s 742 mmHg 59%
17:00 +15°C° 0 mm 1 m/s 743 mmHg 65%
18:00 +14°C° 0 mm 1 m/s 743 mmHg 71%
19:00 +13°C° 0 mm 1 m/s 743 mmHg 77%
20:00 +13°C° 0 mm 1 m/s 743 mmHg 80%
21:00 +12°C° 0 mm 1 m/s 744 mmHg 83%
22:00 +12°C° 0 mm 1 m/s 744 mmHg 86%
23:00 +12°C° 0 mm 1 m/s 744 mmHg 86%

30 Septembrie, Miercuri

Timp Temperatura Precipitaţii Vânt Presiune Umiditate
00:00 +12°C° 0 mm 1 m/s 744 mmHg 86%
01:00 +12°C° 0 mm 1 m/s 744 mmHg 87%
02:00 +13°C° 0 mm 2 m/s 744 mmHg 88%
03:00 +13°C° 0 mm 2 m/s 744 mmHg 90%
04:00 +13°C° 0 mm 2 m/s 744 mmHg 92%
05:00 +13°C° 0 mm 2 m/s 744 mmHg 92%
06:00 +13°C° 0 mm 2 m/s 744 mmHg 93%
07:00 +14°C° 0 mm 2 m/s 744 mmHg 93%
08:00 +14°C° 0 mm 2 m/s 744 mmHg 90%
09:00 +15°C° 0 mm 2 m/s 744 mmHg 87%
10:00 +16°C° 0 mm 2 m/s 744 mmHg 84%
11:00 +16°C° 0 mm 2 m/s 744 mmHg 79%
12:00 +17°C° 0 mm 2 m/s 744 mmHg 74%
13:00 +18°C° 0 mm 2 m/s 744 mmHg 70%
14:00 +18°C° 0 mm 2 m/s 743 mmHg 71%
15:00 +18°C° 0 mm 2 m/s 743 mmHg 72%
16:00 +18°C° 0 mm 3 m/s 743 mmHg 74%
17:00 +16°C° 0 mm 3 m/s 743 mmHg 80%
18:00 +15°C° 0 mm 2 m/s 743 mmHg 86%
19:00 +14°C° 0 mm 2 m/s 743 mmHg 92%
20:00 +13°C° 0 mm 2 m/s 743 mmHg 93%
21:00 +13°C° 0 mm 2 m/s 743 mmHg 94%
22:00 +12°C° 0 mm 2 m/s 743 mmHg 94%
23:00 +12°C° 0 mm 2 m/s 742 mmHg 94%
Arată mai mult